Location: Unspecified
(0.0000°N, 0.0000°E)
Time: 21:41:32
(UTC+00:00)

S-56A Canister/Altair - Pass Details

Date: 25 April 2019
Orbit: 633 x 2499 km, 38.9° (Epoch: 24 May)

Event Time Altitude Azimuth Distance (km) Brightness Sun altitude
Rises 20:01:57 0° 275° (W) 3,444 12.0 -30.1°
Reaches altitude 10° 20:06:47 10° 239° (WSW) 2,204 10.3 -31.2°
Maximum altitude 20:08:05 11° 223° (SW) 2,078 10.0 -31.6°
Enters shadow 20:08:51 11° 214° (SSW) 2,070 9.9 -31.7°
